Location: ?
(35.4064°N, 139.3593°E)
Time: 13:39:49
(UTC+00:00)

Cosmos 2263 - Pass Details

Date: 18 April 2024
Orbit: 832 x 864 km, 70.9° (Epoch: 18 May)

Event Time Altitude Azimuth Distance (km) Brightness Sun altitude
Rises 19:33:31 0° 335° (NNW) 3,388 7.3 -7.0°
Reaches altitude 10° 19:35:58 10° 332° (NNW) 2,454 6.5 -6.5°
Maximum altitude 19:41:33 66° 252° (WSW) 916 4.2 -5.4°
Drops below altitude 10° 19:47:07 10° 171° (S) 2,459 6.6 -4.4°
Sets 19:49:35 0° 168° (SSE) 3,396 7.3 -3.9°
